{"data":{"norad_id":60603,"epoch":"2026-05-25T04:25:23.039616Z","epoch_age_seconds":59354,"freshness":"FRESH","line1":"1 60603U 24150W   26145.18429444 -.00002088  00000+0 -50670-4 0  9992","line2":"2 60603  53.1623 310.9622 0001341 107.5763 252.5386 15.34401901 99768","mean_motion":15.34401901,"eccentricity":0.0001341,"inclination_deg":53.1623,"raan_deg":310.9622,"arg_perigee_deg":107.5763,"mean_anomaly_deg":252.5386,"bstar":-5.067e-5,"rev_number":9976,"period_min":93.847641811544,"perigee_km":461.7802341218,"apogee_km":463.61494595884,"semimajor_km":6840.8345900403,"source":"CELESTRAK","updated_at":"2026-05-25T13:38:19.282780Z"}}